This demonstration page uses our WeatherBlox Daily Observations layout. Learn more.

Left ArrowRight Arrow

41.12389, -100.76542

Hourly Observations for March 21, 2019

Temp ( °F °C ) Dew Point ( °F °C ) Humidity (%) Winds ( mph kmh ) Pressure ( in mb ) Visibility ( mi km ) Precip ( " mm )
12:53 am 00:53 Clear 30 -1.1 26 -3.3 85 85 Calm 30.27 1025 10 16 0.00 0.00
1:53 am 01:53 Clear 25 -3.9 23 -5 92 92 N 5 7 30.28 1025 10 16 0.00 0.00
2:53 am 02:53 Clear 26 -3.3 23 -5 88 88 NNW 5 7 30.27 1025 10 16 0.00 0.00
3:53 am 03:53 Clear 26 -3.3 24 -4.4 92 92 NNW 6 9 30.27 1025 10 16 0.00 0.00
4:53 am 04:53 Clear 24 -4.4 23 -5 96 96 N 3 6 30.26 1025 10 16 0.00 0.00
5:53 am 05:53 Clear 25 -3.9 23 -5 92 92 N 5 7 30.25 1025 10 16 0.00 0.00
6:53 am 06:53 Clear 24 -4.4 21 -6.1 88 88 NNW 3 6 30.26 1025 10 16 0.00 0.00
7:53 am 07:53 Sunny 24 -4.4 20 -6.7 84 84 Calm 30.29 1026 10 16 0.00 0.00
8:53 am 08:53 Sunny 30 -1.1 27 -2.8 88 88 NW 3 6 30.28 1026 10 16 0.00 0.00
9:53 am 09:53 Sunny 37 2.8 31 -0.6 79 79 NW 3 6 30.27 1025 10 16 0.00 0.00
10:53 am 10:53 Sunny 44 6.7 32 0 63 63 W 7 11 30.27 1025 10 16 0.00 0.00
11:53 am 11:53 Sunny 52 11.1 34 1.1 50 50 W 7 11 30.23 1024 10 16 0.00 0.00
12:53 pm 12:53 Sunny 59 15 33 0.6 38 38 undefined N/A 30.20 1023 10 16 0.00 0.00
1:53 pm 13:53 Sunny 62 16.7 30 -1.1 30 30 WNW 8 13 30.19 1022 10 16 0.00 0.00
2:53 pm 14:53 Sunny 63 17.2 29 -1.7 28 28 VRB 3 6 30.16 1021 10 16 0.00 0.00
3:53 pm 15:53 Sunny 65 18.3 29 -1.7 26 26 WNW 7 11 30.13 1020 10 16 0.00 0.00
4:53 pm 16:53 Sunny 67 19.4 29 -1.7 24 24 Calm 30.12 1020 10 16 0.00 0.00
5:53 pm 17:53 Sunny 68 20 28 -2.2 22 22 Calm 30.11 1020 10 16 0.00 0.00
6:53 pm 18:53 Sunny 64 17.8 28 -2.2 26 26 Calm 30.12 1020 10 16 0.00 0.00
7:53 pm 19:53 Sunny 50 10 31 -0.6 48 48 ESE 8 13 30.14 1021 10 16 0.00 0.00
8:53 pm 20:53 Clear 46 7.8 36 2.2 68 68 ESE 9 15 30.14 1021 10 16 0.00 0.00
9:53 pm 21:53 Clear 43 6.1 35 1.7 74 74 SE 9 15 30.14 1021 10 16 0.00 0.00
10:53 pm 22:53 Clear 39 3.9 33 0.6 79 79 SE 6 9 30.14 1021 10 16 0.00 0.00
11:53 pm 23:53 Clear 37 2.8 32 0 82 82 ESE 5 7 30.14 1021 10 16 0.00 0.00

Powered by AerisWeather